TimeCST,TemperatureF,Dew PointF,Humidity,Sea Level PressureIn,VisibilityMPH,Wind Direction,Wind SpeedMPH,Gust SpeedMPH,PrecipitationIn,Events,Conditions,WindDirDegrees,DateUTC
12:52 AM,35.1,30.0,82,29.74,7.0,NE,20.7,31.1,0.00,Rain,Light Rain,50,2013-02-26 06:52:00
12:59 AM,35.6,30.2,81,29.72,10.0,NE,20.7,28.8,0.00,Rain,Light Freezing Rain,50,2013-02-26 06:59:00
1:27 AM,35.6,30.2,81,29.69,10.0,NE,18.4,26.5,0.01,,Overcast,50,2013-02-26 07:27:00
1:36 AM,35.6,30.2,81,29.68,9.0,NE,19.6,-,0.01,Rain,Light Freezing Rain,50,2013-02-26 07:36:00
1:52 AM,34.0,30.0,85,29.67,6.0,ENE,23.0,-,0.03,Rain,Light Freezing Rain,60,2013-02-26 07:52:00
2:00 AM,33.8,30.2,87,29.65,6.0,NE,21.9,-,0.01,Rain,Light Freezing Rain,50,2013-02-26 08:00:00
2:07 AM,33.8,30.2,87,29.64,6.0,NE,20.7,28.8,0.01,Snow,Light Snow,50,2013-02-26 08:07:00
2:45 AM,33.8,30.2,87,29.61,8.0,ENE,19.6,34.5,0.03,Rain,Light Freezing Rain,60,2013-02-26 08:45:00
2:52 AM,34.0,30.0,85,29.63,6.0,ENE,21.9,33.4,0.04,Rain,Light Freezing Rain,60,2013-02-26 08:52:00
3:11 AM,33.8,30.2,87,29.61,4.0,ENE,20.7,27.6,0.01,Rain,Light Freezing Rain,60,2013-02-26 09:11:00
3:35 AM,33.8,30.2,87,29.58,4.0,ENE,20.7,33.4,0.06,Snow,Light Snow,60,2013-02-26 09:35:00
3:52 AM,33.1,30.9,92,29.55,3.0,NE,27.6,35.7,0.12,Rain,Light Freezing Rain,50,2013-02-26 09:52:00
4:37 AM,33.8,30.2,87,29.51,2.5,ENE,25.3,35.7,0.23,Rain,Light Freezing Rain,60,2013-02-26 10:37:00
4:52 AM,33.1,30.9,92,29.52,2.5,ENE,26.5,38.0,0.32,Rain,Heavy Rain,60,2013-02-26 10:52:00
5:01 AM,33.8,30.2,87,29.50,2.5,NE,25.3,40.3,0.06,Rain,Light Freezing Rain,50,2013-02-26 11:01:00
5:13 AM,33.8,30.2,87,29.51,2.5,ENE,23.0,34.5,0.12,Rain,Light Freezing Rain,60,2013-02-26 11:13:00
5:22 AM,33.8,30.2,87,29.50,2.5,ENE,24.2,34.5,0.18,Rain,Light Freezing Rain,70,2013-02-26 11:22:00
5:25 AM,33.8,30.2,87,29.50,3.0,ENE,24.2,34.5,0.19,Rain,Heavy Rain,60,2013-02-26 11:25:00
5:33 AM,33.8,30.2,87,29.50,3.0,ENE,24.2,38.0,0.22,Rain,Light Freezing Rain,60,2013-02-26 11:33:00
5:47 AM,33.8,30.2,87,29.49,3.0,ENE,24.2,33.4,0.28,Rain,Light Freezing Rain,60,2013-02-26 11:47:00
5:52 AM,33.1,30.9,92,29.50,3.0,ENE,24.2,33.4,0.29,Rain,Light Freezing Rain,60,2013-02-26 11:52:00
6:21 AM,33.8,30.2,87,29.49,3.0,ENE,23.0,36.8,0.06,Rain,Rain,70,2013-02-26 12:21:00
6:52 AM,33.1,30.9,92,29.49,6.0,ENE,21.9,33.4,0.08,,Overcast,70,2013-02-26 12:52:00
7:52 AM,33.1,32.0,96,29.48,3.0,ENE,21.9,27.6,N/A,,Overcast,70,2013-02-26 13:52:00
8:52 AM,34.0,32.0,92,29.47,4.0,ENE,21.9,-,N/A,,Overcast,70,2013-02-26 14:52:00
9:52 AM,34.0,33.1,96,29.46,4.0,ENE,16.1,25.3,N/A,,Overcast,70,2013-02-26 15:52:00
10:52 AM,34.0,32.0,92,29.45,5.0,ENE,16.1,-,N/A,,Overcast,60,2013-02-26 16:52:00
11:52 AM,34.0,32.0,92,29.45,5.0,ENE,12.7,-,0.01,,Overcast,60,2013-02-26 17:52:00
12:52 PM,35.1,33.1,92,29.43,5.0,NE,10.4,-,0.07,Rain,Light Rain,40,2013-02-26 18:52:00
1:52 PM,34.0,33.1,96,29.43,8.0,NNE,13.8,-,0.02,Rain,Light Rain,30,2013-02-26 19:52:00
2:52 PM,33.1,32.0,96,29.44,3.0,North,10.4,-,0.00,Snow,Snow,10,2013-02-26 20:52:00
2:56 PM,33.8,32.0,93,29.44,1.8,NNE,10.4,-,0.01,Snow,Snow,20,2013-02-26 20:56:00
3:08 PM,33.8,32.0,93,29.44,1.2,North,10.4,-,0.02,Snow,Snow,10,2013-02-26 21:08:00
3:15 PM,33.8,32.0,93,29.44,1.8,North,11.5,-,0.02,Snow,Snow,10,2013-02-26 21:15:00
3:39 PM,33.8,32.0,93,29.45,1.0,NNE,11.5,-,0.03,Snow,Snow,20,2013-02-26 21:39:00
3:52 PM,33.1,32.0,96,29.46,0.8,North,9.2,-,0.04,Snow,Light Snow,10,2013-02-26 21:52:00
4:52 PM,32.0,32.0,100,29.49,0.5,North,10.4,-,0.09,Snow,Light Snow,10,2013-02-26 22:52:00
5:49 PM,32.0,32.0,100,29.49,1.5,North,9.2,-,0.06,Snow,Light Snow,360,2013-02-26 23:49:00
5:52 PM,32.0,32.0,100,29.51,2.0,North,9.2,-,0.06,Snow,Light Snow,360,2013-02-26 23:52:00
6:52 PM,33.1,32.0,96,29.53,3.0,NNW,8.1,-,0.01,Snow,Light Snow,340,2013-02-27 00:52:00
7:52 PM,33.1,32.0,96,29.55,7.0,NNW,9.2,-,0.00,Snow,Light Snow,340,2013-02-27 01:52:00
8:52 PM,33.1,30.9,92,29.57,9.0,NNW,9.2,-,0.00,Snow,Light Snow,340,2013-02-27 02:52:00
9:52 PM,33.1,30.9,92,29.59,9.0,NW,6.9,-,0.00,,Overcast,320,2013-02-27 03:52:00
10:52 PM,33.1,30.9,92,29.59,9.0,WNW,8.1,-,N/A,,Overcast,300,2013-02-27 04:52:00
11:52 PM,32.0,30.9,96,29.60,10.0,WNW,10.4,-,N/A,,Overcast,300,2013-02-27 05:52:00